Location: Home
(42.5358°N, 72.7383°W)
Time: 14:42:03
(UTC-05:00)

Explorer 11/Cluster Stage 4 - Pass Details

Date: 21 December 2025
Orbit: 463 x 1179 km, 28.8° (Epoch: 21 January)

Event Time Altitude Azimuth Distance (km) Brightness Sun altitude
Rises 18:22:02 0° 255° (WSW) 4,025 11.8 -21.4°
Reaches altitude 10° 18:25:27 10° 243° (WSW) 3,089 10.7 -22.0°
Maximum altitude 18:31:24 24° 193° (SSW) 2,190 9.0 -23.1°
Enters shadow 18:36:56 11° 144° (SE) 2,926 9.2 -24.1°
